EHI
11 11 11 13 14 13 12 13 12 10 10 10 10 9 7 7 9 8 6 6 6 6 5 4 3 3 2 2 2 1 0 0 0 0 1 1 1 1 0 0 0 0 0
12 12 12 13 13 13 13 13 11 10 10 10 10 9 8 8 9 8 7 6 6 6 6 5 4 3 3 2 2 2 1 1 1 0 0 1 2 2 1 0 0 0 0
13 13 13 14 14 14 13 12 11 10 10 10 10 9 9 8 8 8 7 7 7 7 7 6 5 4 4 3 3 3 3 2 2 1 0 1 1 1 1 0 0 0 0
13 13 13 14 14 14 12 11 10 10 10 10 10 10 9 8 7 7 7 7 7 7 7 7 6 6 5 4 3 3 3 4 3 2 1 0 0 0 0 0 0 0 0
13 13 13 13 13 13 11 10 10 10 10 10 11 10 8 7 6 6 6 6 7 7 7 6 6 5 4 3 3 3 4 5 4 3 2 1 0 0 0 0 0 0 0
12 12 12 12 11 11 11 10 10 10 10 11 11 9 7 5 4 4 4 5 6 6 6 6 6 5 4 3 3 3 3 4 4 3 3 2 1 0 0 0 0 0 0
11 11 11 11 11 11 11 11 10 9 10 10 10 8 6 4 3 2 2 4 5 6 6 6 6 5 4 4 3 2 2 2 2 3 3 3 2 1 1 0 0 0 0
12 11 11 11 10 10 11 12 11 10 10 10 9 8 7 5 3 1 1 3 4 6 6 6 6 6 5 5 5 4 3 3 2 2 2 2 2 2 1 0 0 0 0
11 11 11 11 10 10 11 13 12 11 11 9 8 9 8 6 4 2 1 2 4 5 6 6 6 6 5 5 5 6 6 5 4 2 1 1 1 1 1 0 0 0 0
10 10 11 11 10 9 11 11 11 11 10 8 8 8 8 6 4 1 1 2 4 5 6 6 6 5 4 3 4 6 6 6 5 3 1 1 0 0 0 0 0 0 0
8 8 9 10 9 8 10 10 10 9 8 7 7 9 9 7 4 1 1 2 3 5 5 5 4 3 2 1 2 4 5 5 5 5 4 2 1 0 0 0 0 0 0
7 7 8 9 8 7 8 9 8 7 7 6 7 8 9 7 5 2 0 1 2 4 4 4 3 2 1 0 0 1 2 2 4 5 5 3 1 0 0 0 0 0 0
9 7 7 6 5 4 6 6 7 7 7 6 7 7 7 7 5 2 1 0 1 2 2 2 2 1 0 0 0 0 0 0 2 4 4 2 1 0 0 0 0 0 0
9 7 5 3 2 3 4 5 6 7 6 6 6 6 6 5 4 3 1 1 1 1 1 1 1 0 0 0 0 0 0 0 0 1 1 1 0 0 0 0 0 0 0
7 5 3 1 1 2 3 3 4 5 4 4 5 5 5 4 3 2 2 2 1 0 0 0 0 0 0 0 0 0 0 0 0 0 0 0 0 0 0 0 0 0 0
5 4 2 1 1 2 2 1 1 1 1 1 2 3 3 1 1 1 1 1 1 0 0 0 0 0 0 0 0 0 0 0 0 0 0 0 0 0 0 0 0 0 0
4 3 1 0 0 1 1 0 0 0 0 0 0 1 1 0 0 0 0 0 0 0 0 0 0 0 0 0 0 0 0 0 0 0 0 0 0 0 0 0 0 0 0
3 2 1 0 0 0 0 0 0 0 0 0 0 0 0 0 0 0 0 0 0 0 0 0 0 0 0 0 0 0 0 0 0 0 0 0 0 0 0 0 0 0 0
2 1 0 0 0 0 0 0 0 0 0 0 0 0 0 0 0 0 0 0 0 0 0 0 0 0 0 0 0 0 0 0 0 0 0 0 0 0 0 0 0 0 0
1 0 0 0 0 0 0 0 0 0 0 0 0 0 0 0 0 0 0 0 0 0 0 0 0 0 0 0 0 0 0 0 0 0 0 0 0 0 0 0 0 0 0
0 0 0 0 0 0 0 0 0 0 0 0 0 0 0 0 0 0 0 0 0 0 0 0 0 0 0 0 0 0 0 0 0 0 0 0 0 0 0 0 0 0 0
0 0 0 0 0 0 0 0 0 0 0 0 0 0 0 0 0 0 0 0 0 0 0 0 0 0 0 0 0 0 0 0 0 0 0 0 0 0 0 0 0 0 0
0 0 0 0 0 0 0 0 0 0 0 1 1 1 1 1 0 0 0 0 1 0 0 0 0 0 0 0 0 0 0 0 0 0 0 0 0 0 0 0 0 0 0
0 0 0 0 0 0 0 1 1 0 1 2 2 2 2 1 0 0 0 0 0 0 0 0 0 0 0 0 0 0 0 0 0 0 0 0 0 0 0 0 0 0 0
0 0 0 0 0 0 1 2 2 1 1 2 2 2 1 1 0 0 0 0 0 0 0 0 0 0 0 0 0 0 0 0 0 0 0 0 0 0 0 0 0 0 0
0 0 0 0 0 1 2 3 3 2 1 1 1 1 0 0 0 0 0 0 0 0 0 0 0 0 0 0 0 0 0 0 0 0 0 0 0 0 0 0 0 0 0
Wind_Speed
3 2 1 2 3 2 2 2 2 1 1 1 1 1 1 0 0 0 1 0 0 1 1 1 1 2 2 2 1 1 1 1 1 1 0 0 0 1 1 2 2 3 4
3 2 2 1 2 2 2 2 2 2 1 1 1 1 1 0 0 0 1 1 1 1 1 1 2 2 2 2 2 2 1 1 1 2 1 1 1 2 2 3 3 3 3
3 3 2 2 2 2 2 2 2 2 2 1 1 1 0 0 1 1 1 1 1 1 1 1 2 2 2 2 2 2 1 1 1 1 2 1 1 1 1 2 3 2 4
2 3 3 3 3 2 2 2 2 2 3 2 2 2 1 1 1 2 1 0 1 1 1 1 2 1 1 2 2 2 1 2 2 2 2 2 1 1 1 2 2 2 3
2 2 3 3 3 2 2 2 3 3 3 2 2 2 2 1 1 1 2 1 1 1 1 1 1 1 1 1 2 1 2 2 2 2 2 2 1 1 1 2 2 2 2
2 2 3 3 3 2 2 2 2 2 2 1 1 0 1 1 2 2 2 2 1 1 2 2 1 0 1 2 2 2 2 3 3 2 2 2 2 2 1 2 2 2 3
2 2 2 3 3 3 3 2 2 2 2 2 2 2 1 1 1 2 3 3 2 2 2 1 2 2 1 2 2 3 4 6 5 3 3 4 3 3 2 3 2 3 4
2 2 2 2 3 2 2 2 2 2 2 2 2 2 2 2 2 2 3 4 3 3 2 2 2 1 3 3 3 2 3 3 4 4 3 4 4 3 3 3 3 4 4
2 2 2 2 2 2 2 2 1 2 2 2 2 2 3 3 3 3 2 3 3 3 2 2 2 1 2 3 2 3 3 3 4 5 5 5 5 6 4 2 3 3 4
2 2 2 2 2 2 2 2 2 2 3 3 3 3 3 3 5 4 3 3 3 3 2 3 3 3 3 3 3 3 4 4 4 4 4 5 5 5 6 4 3 3 4
2 1 1 2 2 2 2 2 2 3 3 3 3 3 3 4 6 6 6 3 3 3 3 2 2 4 5 5 5 4 6 5 5 5 4 4 3 3 3 4 4 3 4
2 2 2 2 3 2 2 2 3 3 3 3 4 4 3 4 5 7 8 7 5 4 4 2 1 2 4 6 6 7 8 6 5 4 4 3 3 3 3 3 4 4 4
1 1 1 2 2 2 3 3 3 3 3 3 3 4 3 3 4 7 9 8 7 5 4 5 6 7 6 6 9 10 7 5 4 5 4 4 3 3 3 2 3 3 4
1 1 2 2 3 3 3 3 3 3 2 3 3 2 1 1 2 2 2 3 5 5 5 6 8 9 8 8 7 6 5 5 5 5 4 4 3 2 3 3 3 3 3
1 2 2 3 3 2 3 2 2 1 1 1 1 2 1 0 1 2 2 2 2 2 4 4 4 4 4 4 4 4 3 3 4 4 4 4 3 3 3 2 2 2 3
1 2 2 2 2 3 3 2 0 1 2 3 2 1 0 1 2 2 1 1 2 3 2 4 4 4 4 4 4 3 2 2 3 3 3 3 3 3 3 2 2 3 3
2 2 2 2 2 3 3 2 2 1 2 2 3 2 2 2 2 2 2 2 4 3 3 5 4 4 4 4 3 3 3 3 3 3 3 3 3 3 3 2 3 3 3
3 3 3 2 2 3 3 2 2 2 3 3 4 6 6 6 5 5 3 2 4 3 4 5 4 4 3 3 3 3 3 3 2 2 2 2 2 2 2 3 2 3 3
4 2 3 3 3 3 3 3 2 2 2 2 2 3 5 5 6 6 4 4 4 4 4 4 4 3 3 2 2 2 3 3 2 2 2 2 2 2 2 3 3 3 3
3 4 4 4 4 3 3 3 3 3 2 2 2 2 3 3 3 3 4 4 4 4 4 3 3 2 2 2 2 2 2 2 2 2 2 2 2 2 3 3 3 3 2
4 4 6 5 4 3 3 3 3 3 3 2 2 1 3 3 3 3 3 3 3 3 3 3 3 2 2 2 2 3 2 2 2 2 2 2 2 3 3 3 3 3 3
4 4 3 4 3 3 3 3 4 4 3 2 1 2 4 2 2 2 2 2 3 2 2 3 3 2 2 2 2 2 2 2 2 2 2 3 3 3 3 3 3 3 3
5 4 3 3 3 3 3 3 3 3 3 2 1 1 1 1 2 2 2 1 1 1 1 1 2 2 2 2 2 2 2 3 3 3 3 3 3 3 3 3 4 3 3
5 4 4 3 3 2 2 2 2 2 2 2 2 1 1 0 1 2 3 2 2 2 1 1 2 3 4 3 3 3 3 3 4 4 5 4 4 3 3 4 4 4 3
5 4 4 2 2 2 2 2 2 3 3 2 2 2 2 1 1 1 1 2 2 2 2 2 1 2 3 4 3 2 2 3 3 4 4 4 5 5 5 5 4 4 3
4 4 3 2 2 2 2 2 2 2 3 3 2 2 2 2 2 1 1 1 1 2 2 2 2 2 3 3 3 2 2 3 3 4 5 4 4 4 4 4 5 4 3
Wind_Direction
158 157 152 170 169 162 154 146 132 122 129 129 150 162 181 189 270 299 283 323 319 321 316 321 298 293 307 305 310 308 292 253 263 277 230 264 257 267 202 199 188 189 197
159 158 161 155 159 163 171 164 156 163 171 185 172 194 229 189 125 293 302 332 303 288 297 308 305 303 311 326 333 322 315 294 272 286 285 255 239 226 217 221 227 217 206
167 164 153 153 161 179 181 173 168 173 176 193 179 185 259 342 340 318 306 332 332 322 327 323 324 338 336 336 321 315 308 299 256 269 279 267 255 254 240 246 245 246 239
162 162 156 166 174 187 191 186 186 197 196 197 201 201 205 217 291 306 297 278 312 328 355 339 325 343 338 321 305 306 306 304 285 268 268 261 251 248 219 258 265 251 250
162 163 159 165 175 175 186 206 200 211 210 196 212 216 217 212 266 312 300 270 301 320 329 330 343 35 17 320 308 329 310 285 280 273 275 274 266 262 253 264 274 276 269
185 184 169 163 165 172 187 211 207 209 215 205 211 215 294 319 14 359 330 313 302 296 307 318 292 187 238 241 258 272 270 269 280 282 281 276 273 266 262 265 278 286 282
199 195 177 178 187 194 205 204 200 212 211 214 211 183 166 93 347 302 311 298 282 276 277 294 303 319 324 289 258 251 256 252 240 246 267 273 279 275 271 275 273 271 271
201 219 207 198 197 194 197 207 206 210 214 209 215 195 172 169 200 253 292 269 265 267 261 249 254 279 309 315 297 285 273 268 241 233 242 259 269 276 268 259 261 269 271
216 218 221 206 193 199 207 208 208 215 222 214 209 204 190 176 200 225 259 260 246 251 249 256 258 256 290 302 290 287 287 287 273 259 245 252 259 267 271 278 268 268 279
242 237 225 221 210 208 212 216 224 228 228 230 217 211 204 185 197 211 225 260 263 259 236 226 232 242 244 250 260 278 280 284 295 291 269 264 254 250 241 230 243 251 266
256 249 236 240 233 214 206 223 230 234 230 237 229 224 212 190 193 206 209 245 277 285 273 243 207 220 237 249 250 254 262 274 282 275 261 252 242 231 225 220 225 232 253
257 258 248 238 248 228 203 226 233 243 239 241 241 235 218 189 185 202 211 228 258 286 293 305 321 266 256 257 255 260 269 276 270 269 267 261 247 241 235 227 226 229 232
254 267 253 241 242 225 210 220 234 239 251 251 241 240 224 187 178 196 212 232 246 259 284 298 291 278 269 259 250 258 264 261 260 264 266 264 256 245 234 231 240 245 250
258 268 263 248 231 221 226 218 216 233 246 265 272 277 257 153 142 172 218 234 248 255 273 276 270 263 259 263 268 253 240 246 251 258 264 268 265 253 249 241 237 241 256
272 266 265 260 246 227 219 235 238 234 205 258 307 331 334 343 189 194 219 254 271 284 293 281 273 262 252 253 255 252 243 243 250 257 263 267 264 259 253 245 240 249 253
258 261 256 258 259 248 226 209 56 189 186 184 184 203 332 180 196 209 204 268 286 294 289 277 276 276 277 281 279 272 264 264 262 258 259 264 262 259 258 254 245 243 246
252 259 263 263 253 260 253 230 207 198 226 231 218 205 200 192 201 220 235 262 273 256 250 265 271 277 275 277 276 281 283 274 270 268 268 268 272 269 260 259 257 254 251
252 243 263 262 268 270 269 252 226 216 213 218 218 215 212 214 226 237 236 258 258 233 248 260 265 267 271 280 281 279 282 281 274 274 272 271 268 268 270 273 269 262 262
252 247 259 269 264 265 266 260 255 244 234 217 192 197 216 223 235 244 233 246 263 269 263 263 267 274 279 273 275 284 284 285 289 288 279 282 285 287 283 283 282 278 268
239 242 254 271 268 263 268 273 269 263 263 241 226 206 183 202 229 220 214 238 257 265 272 280 278 273 288 293 282 278 283 285 288 285 293 295 295 289 286 284 286 281 271
247 228 225 251 268 276 281 287 286 278 277 276 255 202 181 215 235 240 230 236 253 269 275 283 289 287 284 285 290 290 292 297 301 302 301 293 282 279 282 284 287 288 288
265 257 242 252 262 271 279 279 282 284 287 283 263 181 173 222 251 257 260 258 249 253 262 269 282 299 304 301 306 309 311 312 317 311 297 289 285 284 285 284 288 290 286
269 266 258 253 262 263 259 270 286 294 299 299 283 230 203 254 293 310 310 315 326 308 298 315 328 341 356 355 350 353 346 333 319 309 298 284 281 279 279 278 276 281 285
277 275 268 264 262 265 276 283 286 298 314 326 332 341 331 330 333 330 328 344 350 346 350 358 356 0 3 356 358 10 1 341 327 319 309 293 287 281 278 278 274 274 271
278 281 280 274 279 293 312 313 318 333 335 339 356 346 327 319 316 324 332 348 355 349 349 356 4 15 15 10 13 13 354 342 329 318 307 295 287 284 282 282 280 274 265
288 292 293 296 305 307 309 312 330 338 330 337 344 331 323 322 329 343 337 341 335 331 331 346 8 31 20 22 26 11 347 331 319 309 297 286 283 284 289 285 288 284 279